Location: Unspecified
(51.5147°N, 7.4673°E)
Time: 17:06:19
(UTC+01:00)

ARIANE 6 FM1 Upper Stage - Visible Passes

Search period start: 20 January 2026 00:00
Search period end: 30 January 2026 00:00
Orbit: 522 x 610 km, 62.0° (Epoch: 20 January)

Date Brightness Start Highest point End Pass type
(mag) Time Alt. Az. Time Alt. Az. Time Alt. Az.
21 Jan 4.9 18:37:34 10° SE 18:37:44 10° SE 18:37:44 10° SE visible
21 Jan 5.2 20:13:08 10° SW 20:13:48 14° SW 20:13:48 14° SW visible
22 Jan 4.4 18:36:19 10° SSE 18:38:37 16° ESE 18:38:37 16° ESE visible
22 Jan 4.8 20:13:16 10° SW 20:14:40 21° SW 20:14:40 21° SW visible
23 Jan 3.9 18:35:39 10° S 18:38:48 22° ESE 18:39:23 21° ESE visible
23 Jan 4.5 20:13:29 10° WSW 20:15:26 27° WSW 20:15:26 27° WSW visible
24 Jan 3.5 18:35:15 10° S 18:38:49 30° SE 18:40:04 25° E visible
24 Jan 4.3 20:13:46 10° WSW 20:16:07 31° W 20:16:07 31° W visible
25 Jan 3.1 18:35:02 10° SSW 18:38:52 41° SE 18:40:39 25° ENE visible
25 Jan 4.3 20:14:06 10° WSW 20:16:42 31° WNW 20:16:42 31° WNW visible
26 Jan 2.7 18:34:57 10° SSW 18:38:56 58° SE 18:41:10 24° ENE visible
26 Jan 4.4 20:14:30 10° W 20:17:12 29° WNW 20:17:12 29° WNW visible
27 Jan 2.5 18:34:58 10° SW 18:39:01 79° SE 18:41:36 21° NE visible
27 Jan 4.5 20:14:56 10° W 20:17:37 26° NW 20:17:37 26° NW visible
28 Jan 2.6 18:35:04 10° SW 18:39:08 77° NW 18:41:58 19° NE visible
28 Jan 4.6 20:15:23 10° WNW 20:17:59 23° NW 20:17:59 23° NW visible
29 Jan 3.0 18:35:16 10° WSW 18:39:16 58° NW 18:42:16 16° NE visible
29 Jan 4.7 20:15:50 10° WNW 20:18:18 21° NNW 20:18:18 21° NNW visible
